User: anonymous   Login
Location: Poughquag
(41.6090°N, 73.6820°W)
Time: 07:41:36
(UTC-04:00)
Language:

Falcon 9 debris - Orbit

View from above orbital plane
View from above orbital plane
View from above satellite
View from above satellite

Ground track
Ground track

The orbit data is extracted from the following two-line orbital elements,

1 44298U 19029BR  19293.33340284  .00001909  00000-0  50414-4 0  9996
2 44298  53.0017 185.2386 0005761  50.1693 309.9818 15.43968910 24281
Epoch (UTC): 20 October 2019 08:00:06
Eccentricity: 0.0005761
inclination: 53.0017°
perigee height: 430 km
apogee height: 438 km
right ascension of ascending node: 185.2386°
argument of perigee: 50.1693°
revolutions per day: 15.43968910
mean anomaly at epoch: 309.9818°
orbit number at epoch: 2428

The dashed part of the orbit path shows where the satellite is in the earth's shadow,  

DLR